O3B FM6 (40081 NORAD) Tracking and Keplerian Element Data

This shows tracking and keplerian element data for the satellite.

Feedback or suggestion? Click here.




ElementValue
Catalog40081
NameO3B FM6
Epoch Orbit7332
Epoch Day198.85549741
Epoch Year2018
RAAN15.992
Inclination0.0424
Eccentricity0.0002591
Argument of Perigee98.5071
Mean Anonmoly245.5244
Mean Motion5.00117378
Decay Rate-2.7E-07
L11 40081U 14038C 18198.85549741 -.00000027 00000-0 00000-0 0 9999
L22 40081 0.0424 15.9920 0002591 98.5071 245.5244 5.00117378 73321

Live tracking and technical data element details for O3B FM6 (NORAD 40081). O3B FM6 can be tracked NOW for your location showing map with azimuth and elevation plus other details from your city location.

Track the satellite on the map from your city or location and see movement details for azimuth, elevation, latitude, longitude, range, height, and movement on the map or in text.







IsCatalogInMostPopularTable: catalog: 40081, numindb: 54
Update: records affected: 1



GetName: 40081 O3B FM6

Hit Count: updated at: Fri, 20 Jul 2018 20:37:43 GMT